CAPE
0 0 0 0 0 0 0 0 0 0 0 0 0 0 0 0 0 0 0 0 0 0
0 0 0 0 0 0 0 0 0 0 0 0 0 0 0 0 0 0 0 0 0 0
0 0 0 0 0 0 0 0 0 0 0 0 0 0 0 0 0 0 1 5 2 0
0 0 0 0 0 0 0 0 0 0 0 0 0 0 1 1 1 2 3 3 7 5
0 0 0 0 0 0 0 0 0 0 0 0 0 1 1 2 3 4 3 3 5 5
0 0 0 0 0 0 0 0 0 0 0 0 2 2 1 1 2 3 3 3 5 4
0 0 0 0 0 0 0 0 0 0 0 3 2 5 4 5 4 3 5 7 6 6
0 0 0 0 0 0 0 0 0 1 1 1 3 6 3 4 1 0 0 0 3 5
0 0 0 0 0 0 0 0 0 0 2 4 7 19 54 52 17 28 31 18 0 0
0 0 0 0 0 0 0 0 0 0 0 0 0 34 65 86 55 41 19 14 15 12
0 0 0 0 0 0 0 0 0 0 0 0 2 62 78 90 36 26 20 26 22 2
0 0 0 0 0 0 0 0 0 1 1 2 1 39 62 73 20 14 10 9 9 7
0 0 0 0 0 0 0 1 8 5 2 18 3 15 49 50 12 5 8 1 1 24
0 0 0 0 0 0 1 1 0 2 0 0 2 4 56 71 30 14 11 10 10 11
CIN
-0 -0 -0 -0 -0 -0 -0 -0 -0 -0 -0 -0 -0 -0 -0 -0 -0 -0 -0 -0 -0 -0
-0 -0 -0 -0 -0 -0 -0 -0 -0 -0 -0 -0 -0 -0 -0 -0 -0 -0 -0 -0 -0 -0
-0 -0 -0 -0 -0 -0 -0 -0 -0 -0 -0 -0 -0 -0 -0 -0 -0 -0 -1 -0 -0 -0
-0 -0 -0 -0 -0 -0 -0 -0 -0 -0 -0 -0 -0 -0 -0 -0 -1 -0 -0 -0 -0 -0
-0 -0 -0 -0 -0 -0 -0 -0 -0 -0 -0 -0 -1 -1 -1 -0 -0 -0 -0 -0 -0 -0
-0 -0 -0 -0 -0 -0 -0 -0 -0 -0 -0 -0 -0 -0 -0 -0 -0 -0 -0 -0 -0 -0
-0 -0 -0 -0 -0 -0 -0 -0 -0 -0 -0 -0 -0 -0 -0 -0 -0 -0 -0 -0 -0 -0
-0 -0 -0 -0 -0 -0 -0 -0 -0 -0 -0 -0 -0 -0 -0 -0 -0 -0 -0 -0 -0 -0
-0 -0 -0 -0 -0 -0 -0 -0 -1 -0 -0 -0 -0 -0 -0 -0 -0 -0 -0 -0 -0 -0
-0 -0 -0 -0 -0 -0 -0 -0 -0 -0 -0 -0 -0 -0 -0 -0 -0 -0 -0 -1 -0 -0
-0 -0 -0 -0 -0 -0 -0 -0 -0 -0 -0 -0 -0 -0 -0 -0 -0 -0 -0 -0 -0 -4
-0 -0 -0 -0 -0 -0 -0 -0 -0 -0 -0 -0 -0 -0 -0 -0 -0 -0 -0 -0 -0 -0
-0 -0 -0 -0 -0 -0 -0 -0 -0 -0 -0 -0 -0 -0 -0 -0 -0 -1 -0 -1 -1 -0
-0 -0 -0 -0 -0 -0 -1 -0 -1 -0 -0 -0 -0 -0 -0 -0 -0 -0 -0 -0 -0 -0
Wind_Speed
7 6 7 8 9 9 9 10 12 12 13 14 14 13 13 11 11 13 11 14 12 10
7 9 10 12 11 9 11 11 13 14 15 15 15 15 15 12 14 13 13 14 14 12
10 11 12 11 13 14 14 14 15 15 16 16 16 16 16 14 14 15 12 12 15 14
12 13 12 12 13 14 15 15 16 17 17 17 17 16 16 17 17 18 17 17 17 18
13 14 14 14 16 15 16 16 17 17 18 18 17 17 18 19 17 19 19 19 18 19
14 14 14 15 16 17 17 17 17 18 18 19 18 19 18 19 20 20 21 20 20 20
15 15 15 16 17 17 17 18 18 18 19 19 20 20 20 20 21 21 20 20 20 20
15 15 16 17 17 18 18 18 19 20 19 20 18 16 19 20 21 22 23 22 21 21
16 16 17 18 18 19 19 19 19 20 20 21 16 30 35 32 20 20 19 19 19 21
16 17 18 19 19 20 20 19 20 20 21 22 22 35 37 37 21 20 19 20 19 19
16 18 19 19 20 20 18 19 19 20 22 22 19 34 36 36 22 18 19 19 20 20
17 19 19 20 21 20 19 19 20 20 20 21 20 33 37 33 19 17 20 19 21 22
18 18 19 20 21 17 19 19 17 21 19 25 23 33 38 33 16 18 16 19 21 35
17 18 19 19 18 17 19 18 20 19 19 21 20 21 34 35 19 16 16 16 15 15
Wind_Direction
297 302 294 290 292 290 290 290 290 286 284 282 283 283 279 275 271 268 264 263 258 257
296 299 296 294 292 292 290 289 290 290 285 282 282 281 280 274 271 267 265 263 262 258
303 295 292 293 292 291 289 290 290 287 283 281 279 277 276 274 271 268 264 261 258 257
298 297 294 292 290 288 289 288 287 285 283 280 278 275 272 270 270 267 266 261 259 258
298 297 296 292 290 291 289 287 285 283 282 279 277 274 270 269 267 266 264 262 261 258
297 296 293 291 291 292 291 288 285 283 281 281 278 275 270 266 265 262 260 259 258 259
297 298 295 295 295 294 292 290 288 285 283 280 278 275 272 267 264 262 259 257 254 254
301 298 299 300 299 297 295 291 290 289 284 281 277 273 270 264 259 256 255 252 250 248
303 305 304 303 302 300 297 294 293 288 285 283 277 278 280 281 273 264 258 253 246 245
308 307 308 306 304 299 299 298 291 288 286 282 278 279 283 283 276 267 258 254 251 249
311 309 309 305 302 300 300 297 294 292 290 286 284 285 289 291 284 276 267 260 253 246
312 309 307 305 302 302 300 299 297 294 294 294 290 292 293 292 285 274 267 260 253 248
306 306 304 300 300 299 299 297 300 299 293 293 292 289 291 291 280 273 266 258 254 254
307 304 299 300 298 301 305 305 302 298 299 294 293 295 295 297 290 277 270 263 257 250